Regional Weather Roundup
Issued by NWS

Home | Current Version | Previous Version | Graphics & Text | Print | Product List | Glossary On
Versions: 1 2 3 4 5 6 7 8 9 10 11 12 13 14 15 16 17 18 19 20 21 22 23 24 25 26 27 28 29 30 31 32 33 34 35 36 37 38 39 40 41 42 43 44 45 46 47 48 49 50
000
ASUS43 KLMK 250610
RWRKY
KENTUCKY REGIONAL WEATHER ROUNDUP
NATIONAL WEATHER SERVICE LOUISVILLE KY
200 AM EDT SAT APR 25 2015

NOTE "FAIR" INDICATES FEW OR NO CLOUDS BELOW 12,000 FEET
WITH NO SIGNIFICANT WEATHER AND/OR OBSTRUCTIONS TO VISIBILITY.

KYZ001>023-026-027-061>063-070>075-250700-
WESTERN AND SOUTH CENTRAL KENTUCKY

CITY           SKY/WX    TMP DP  RH WIND       PRES   REMARKS
PADUCAH        CLOUDY    57  52  83 CALM      29.77F
HENDERSON      CLOUDY    55  39  54 SE5       29.79F
OWENSBORO      CLOUDY    58  40  51 SE7       29.81F
HOPKINSVILLE   CLOUDY    56  51  84 S13       29.77F
BOWLING GREEN  MOCLDY    59  43  55 S7        29.82F
GLASGOW        FAIR      58  37  47 CALM      29.83F
$$

KYZ024-025-028>034-038-045-046-053-250700-
NORTH CENTRAL KENTUCKY

CITY           SKY/WX    TMP DP  RH WIND       PRES   REMARKS
LOUISVILLE/SDF CLOUDY    56  42  59 E5        29.86S
LOUISVILLE/LOU CLOUDY    57  38  48 SE3       29.87F
FORT KNOX      CLOUDY    55  40  57 E2        29.83F
$$

KYZ035>037-039>044-047>052-055>060-089>105-250700-
NORTHEAST KENTUCKY

CITY           SKY/WX    TMP DP  RH WIND       PRES   REMARKS
LEXINGTON      LGT RAIN  55  36  48 SE5       29.88F
COVINGTON      LGT RAIN  52  37  56 E7        29.88S
FRANKFORT      LGT RAIN  54  37  52 SE3       29.85F
$$

KYZ054-064>069-076>088-106>120-250700-
SOUTHEAST KENTUCKY

CITY           SKY/WX    TMP DP  RH WIND       PRES   REMARKS
JACKSON        LGT RAIN  52  30  43 E5        29.88F
LONDON         CLOUDY    57  38  48 SE3       29.88F
SOMERSET       CLOUDY    54  43  66 CALM      29.88F
MIDDLESBORO    CLOUDY    55  42  63 CALM      29.91F
MONTICELLO     CLOUDY    56  44  64 CALM      29.90F
$$




USA.gov is the U.S. government's official web portal to all federal, state and local government web resources and services.